This is the latest recevied weather packets stored in our database for station/object SQ9PDE-13. If no packets are shown the sender has not sent any weather packets the latest 10 day(s).
| Time | Temp. | Humidity | Pressure | Rain* | Wind** | Luminosity | Snow |
|---|---|---|---|---|---|---|---|
| 1778083081 | 23.89° C | 40% | 1003.7 hPa | - | - | - | - |
| 1778082781 | 23.89° C | 41% | 1003.8 hPa | - | - | - | - |
| 1778082480 | 23.89° C | 39% | 1003.8 hPa | - | - | - | - |
| 1778082180 | 23.33° C | 40% | 1003.9 hPa | - | - | - | - |
| 1778081879 | 24.44° C | 40% | 1003.8 hPa | - | - | - | - |
| 1778081579 | 24.44° C | 40% | 1003.7 hPa | - | - | - | - |
| 1778081321 | 24.44° C | 41% | 1003.8 hPa | - | - | - | - |
| 1778081278 | 24.44° C | 41% | 1003.8 hPa | - | - | - | - |
| 1778081008 | 24.44° C | 41% | 1003.9 hPa | - | - | - | - |
| 1778080977 | 24.44° C | 41% | 1003.9 hPa | - | - | - | - |
| 1778080677 | 25° C | 41% | 1003.8 hPa | - | - | - | - |
| 1778080376 | 24.44° C | 41% | 1003.9 hPa | - | - | - | - |
| 1778080076 | 25° C | 41% | 1003.9 hPa | - | - | - | - |
| 1778079775 | 24.44° C | 40% | 1003.9 hPa | - | - | - | - |
| 1778079475 | 24.44° C | 42% | 1004.1 hPa | - | - | - | - |
| 1778079174 | 24.44° C | 42% | 1004.2 hPa | - | - | - | - |
| 1778078874 | 24.44° C | 41% | 1004.3 hPa | - | - | - | - |
| 1778078606 | 23.89° C | 41% | 1004.2 hPa | - | - | - | - |
| 1778078573 | 23.89° C | 41% | 1004.2 hPa | - | - | - | - |
| 1778078273 | 24.44° C | 41% | 1004.3 hPa | - | - | - | - |
| 1778077972 | 24.44° C | 40% | 1004.3 hPa | - | - | - | - |
| 1778077672 | 24.44° C | 41% | 1004.3 hPa | - | - | - | - |
| 1778077371 | 23.89° C | 41% | 1004.5 hPa | - | - | - | - |
| 1778077071 | 23.89° C | 40% | 1004.5 hPa | - | - | - | - |
| 1778076770 | 23.89° C | 40% | 1004.5 hPa | - | - | - | - |
* Rain since midnight (hover to see other rain measurements)
** Current wind speed in m/s (hover to see current wind gust speed)